Balaxanı

Azerbaijan     40˚27′43″N   49˚55′11″E
temp.,
°C
wind,
m/s
gust,
m/s
humid.,
%
clouds,
%
prec.,
mm/h
press.,
hPa
HPBL,
m
1 december, tue
tue101:00+9˚nnw348488 0.2 1025268
04:00+9˚nnw458262 0.3 1024223
07:00+8˚nw578350 0.1 1024268
10:00+9˚nw237775 0.1 1025157
13:00+10˚s1162100 0.0 1024248
16:00+11˚s2358100 0.0 1023340
19:00+10˚s236374 0.0 102482
22:00+10˚wsw126385 0.0 102568
2 december, wed
wed201:00+9˚wnw347445 0.0 1025160
04:00+9˚nw468227 0.0 1025219
07:00+9˚nw47820 0.0 1026216
10:00+10˚nw57750 0.0 1027397
13:00+11˚nw67700 0.0 1027439
16:00+12˚n56740 0.0 1026565
19:00+10˚ne788343 0.0 1028430
22:00+9˚nne567953 0.0 1028667
3 december, thu
thu301:00+9˚nne677694 0.0 1029712
04:00+8˚nne677696 0.0 1029658
07:00+8˚nne567277 0.0 1030728
10:00+8˚nne457284 0.0 1030678
13:00+9˚nne446994 0.0 1030689
16:00+9˚ne446688 0.0 1029604
19:00+9˚ene336794 0.0 1030738
22:00+9˚ene346696 0.0 1030717
4 december, fri
fri401:00+9˚ene3464100 0.0 1030686
04:00+9˚e346698 0.0 1029672
07:00+9˚e456598 0.0 1029545
10:00+9˚ese346498 0.0 1030550
13:00+10˚ese4463100 0.0 1028557
16:00+10˚ese456599 0.0 1027540
19:00+10˚ese3579100 0.1 1027454
22:00+10˚se4784100 2.3 1027605
5 december, sat
sat501:00+11˚se6976100 1.3 1026798
04:00+10˚ese6876100 1.6 1026708
07:00+9˚ese697491 0.1 1026546
10:00+10˚ese687193 0.1 1026554
13:00+10˚e6772100 0.3 1025555
16:00+9˚e6872100 0.8 1025393
19:00+9˚e686699 0.2 1026496
22:00+9˚e686199 0.3 1027605